Lexington Weather

Lexington, Massachusetts, USA

33°F
12/8/2019 4:03pm 
  • Lexington Conditions: Mostly cloudy
  • Temperature: 32.5°F / 0.3°CColder 1.1°F than last hour.
  • Dew Point: 16.9°FIncreased 1.3°Fsince last hour.
  • Relative Humidity: 52%Increased 5.0% since last hour.
  • Wind: Wind from WSW WSW 2 mph, 10-min avg: 3 mph, gust: 7 mph
  • Barometer: 30.40 in Steady
  • Visibility: 10 miles
  • Snow Today: 0.0 in
  •   

Regional Weather Roundup
for Boston / Norton, MA

        
000
ASUS41 KBOX 071400
RWRBOX

REGIONAL WEATHER ROUNDUP
NATIONAL WEATHER SERVICE BOSTON/NORTON MA
900 AM EST SAT DEC 07 2019

NOTE:  "FAIR" INDICATES FEW OR NO CLOUDS BELOW 12,000 FEET WITH NO 
SIGNIFICANT WEATHER AND/OR OBSTRUCTIONS TO VISIBILITY.

MAZALL-071500-
EASTERN MASSACHUSETTS
  
CITY           SKY/WX    TMP DP  RH WIND       PRES   REMARKS
BOSTON         FAIR      30  14  51 NW14      30.30R WCI  19          
BEVERLY        FAIR      25  14  63 NW15      30.28R WCI  13          
LAWRENCE       FAIR      23  14  68 NW9       30.30R WCI  13          
BEDFORD        FAIR      24  14  65 W5        30.29R WCI  18          
BLUE HILL        N/A     23  17  78 NW8       30.25R WCI  14          
NORWOOD        FAIR      30  16  56 NW10      30.30R WCI  21          
MARSHFIELD     NOT AVBL                                               
PLYMOUTH       FAIR      28  17  63 NW9       30.28R WCI  19          
TAUNTON        FAIR      30  18  60 NW6       30.30R WCI  24          
NEW BEDFORD    FAIR      30  19  63 NW8       30.29R WCI  22          
$$

MAZALL-071500-
CAPE COD AND THE ISLANDS
  
CITY           SKY/WX    TMP DP  RH WIND       PRES   REMARKS
FALMOUTH       SUNNY     28  19  69 N7G17     30.28R WCI  21          
HYANNIS        NOT AVBL                                               
CHATHAM        PTSUNNY   33  21  61 N9        30.27R WCI  25          
PROVINCETOWN   CLOUDY    31  22  69 NW12      30.28R WCI  22          
NANTUCKET      FAIR      33  21  61 N14       30.27S WCI  23          
MARTHAS VNYRD  FAIR      32  18  56 NW15      30.29R WCI  22          
$$
 
MAZALL-071500-
CENTRAL AND WESTERN MASSACHUSETTS
  
CITY           SKY/WX    TMP DP  RH WIND       PRES   REMARKS
WORCESTER      FAIR      21  13  71 W12       30.25R WCI   9          
FITCHBURG      FAIR      17  14  88 CALM      30.30R                  
ORANGE         FAIR      11   9  92 CALM      30.30R                  
SPRINGFIELD    MOSUNNY   13   9  86 CALM      30.31R                  
WESTFIELD      FAIR      24  14  65 NW8       30.31R WCI  15          
NORTH ADAMS    CLOUDY    21  13  71 VRB7      30.29R WCI  12          
PITTSFIELD     LGT SNOW  20  15  81 CALM      30.25R                  
$$
 
RIZALL-071500-
RHODE ISLAND
  
CITY           SKY/WX    TMP DP  RH WIND       PRES   REMARKS
PROVIDENCE     FAIR      30  17  58 NW8       30.31R WCI  22          
NEWPORT        FAIR      30  18  60 NW14G20   30.29R WCI  19          
BLOCK ISLAND   FAIR      30  18  60 N10       30.32R WCI  21          
SMITHFIELD     FAIR      26  16  65 NW10      30.29R WCI  16          
WESTERLY       FAIR      32  14  47 NW8       30.32R WCI  25          
$$
 
CTZALL-071500-
CONNECTICUT
  
CITY           SKY/WX    TMP DP  RH WIND       PRES   REMARKS
BRADLEY INTL   FAIR      29  14  53 NW7       30.33R WCI  22          
HARTFORD       FAIR      28  16  60 CALM      30.34R                  
BRIDGEPORT     FAIR      33  19  56 NW7       30.34R WCI  27          
DANBURY        FAIR      25  19  78 CALM      30.34R                  
GROTON         NOT AVBL                                               
NEW HAVEN      FAIR      34  19  54 N7        30.34R WCI  28          
CHESTER        FAIR      30  18  59 N7        30.32R WCI  23          
MERIDEN        FAIR      28  18  66 NW3       30.34R                  
WILLIMANTIC    FAIR      27  15  61 W7        30.33R WCI  19          
OXFORD         PTSUNNY   25  18  74 CALM      30.31R                  
$$

MEZ002-015-021-024-NHZ003-005-008-011-012-014-VTZ005-008-071500-
NORTHERN NEW ENGLAND
  
CITY           SKY/WX    TMP DP  RH WIND       PRES   REMARKS
PORTLAND ME    FAIR      21  13  71 W6        30.26R WCI  13          
BANGOR ME      FAIR      20  10  65 NW15      30.23R WCI   6          
CONCORD NH     FAIR      15  12  88 CALM      30.28R                  
MANCHESTER NH  FAIR      22  12  65 NW5       30.28R WCI  16          
NASHUA NH      FAIR      22  19  89 NW5       30.30R WCI  16          
PORTSMOUTH NH  MOSUNNY   23  13  66 W8        30.26R WCI  14          
JAFFREY NH     FAIR      13  10  88 CALM      30.24R                  
KEENE NH       FAIR      21  17  84 CALM      30.30R                  
BURLINGTON VT  CLOUDY    23  18  81 NE3       30.30R                  
MT. WASHINGTON FOG        0   0 100 NW36        N/A  VSB 1/8 WCI -28  
$$

NYZ052-076-071500-
EASTERN NEW YORK
  
CITY           SKY/WX    TMP DP  RH WIND       PRES   REMARKS
ALBANY         FLURRIES  24  17  74 CALM      30.35R                  
NEW YORK CITY  PTSUNNY   34  19  54 NW15      30.36R WCI  24          
$$
 
ANZALL-071500-
MARINE OBSERVATIONS
  
STATION/POSITION TIME  TEMP    WIND        PRES    VSBY  WAVE
                       AIR SEA DIR/SP/G                  HT/PER
                 (UTC) (F)     (DEG/KT/KT) (MB)    (MI)  (FT/S)
BOSTON BUOY      1250   30 47  320/ 21/ 25 1023.3          4/ 4
BUZZARDS BAY     1300   30     340/ 16/ 18 1025.8R
NANTUCKET SOUND  1340      42              1025.6
MASS BAY-STELLWA 1304   28 46  340/ 19/ 25 1022.5R  1 7/8  3/ 5
ISLE OF SHOALS   1300   25     320/ 19/ 20 1023.9R
S OF BLOCK IS    1330      52                N/A           4/ 8
$$

......................KEY.........................
  SKY/WX - SKY CONDITION/PRESENT WEATHER
  TMP    - TEMPERATURE IN FAHRENHEIT
  DWPT   - DEWPOINT IN FAHRENHEIT
  RH     - RELATIVE HUMIDITY IN PERCENT
  WIND   - DIRECTION AND SPEED IN MPH
  PRES   - MEAN SEA LEVEL PRESSURE IN INCHES OF HG
  WCI    - WIND CHILL INDEX
  VSB    - VISIBILITY IN MILES
  HX     - HEAT INDEX
  TC     - TEMPERATURE IN CELSIUS
  VRB    - VARIABLE WIND DIRECTION
  N/A    - NOT AVAILABLE
  
      

Other recent Regional Weather Roundups

Sun Dec 8, 4:01pm

Sun Dec 8, 3:10pm

Sun Dec 8, 3:01pm

Sun Dec 8, 2:10pm

Sun Dec 8, 2:01pm

Sun Dec 8, 1:10pm

Sun Dec 8, 1:00pm

Sun Dec 8, 12:10pm

Sun Dec 8, 12:01pm

Sun Dec 8, 11:10am

Sun Dec 8, 11:00am

Sun Dec 8, 10:10am

Sun Dec 8, 10:01am

Sun Dec 8, 9:10am

Sun Dec 8, 9:00am

Sun Dec 8, 8:10am

Sun Dec 8, 8:00am

Sun Dec 8, 7:10am

Sun Dec 8, 7:00am

Sun Dec 8, 6:10am

Sun Dec 8, 6:00am

Sun Dec 8, 5:10am

Sun Dec 8, 5:00am

Sun Dec 8, 4:10am

Sun Dec 8, 4:00am

Sun Dec 8, 3:10am

Sun Dec 8, 3:00am

Sun Dec 8, 2:10am

Sun Dec 8, 2:00am

Sun Dec 8, 1:10am

Sun Dec 8, 1:00am

Sun Dec 8, 12:10am

Sun Dec 8, 12:01am

Sat Dec 7, 11:10pm

Sat Dec 7, 11:00pm

Sat Dec 7, 10:10pm

Sat Dec 7, 10:00pm

Sat Dec 7, 9:10pm

Sat Dec 7, 9:00pm

Sat Dec 7, 8:10pm

Sat Dec 7, 8:00pm

Sat Dec 7, 7:10pm

Sat Dec 7, 7:00pm

Sat Dec 7, 6:10pm

Sat Dec 7, 6:00pm

Sat Dec 7, 5:10pm

Sat Dec 7, 5:00pm

Sat Dec 7, 4:10pm

Sat Dec 7, 4:00pm

Sat Dec 7, 3:10pm

Sat Dec 7, 3:00pm

Sat Dec 7, 2:10pm

Sat Dec 7, 2:01pm

Sat Dec 7, 1:10pm

Sat Dec 7, 1:00pm

Sat Dec 7, 12:10pm

Sat Dec 7, 12:01pm

Sat Dec 7, 11:10am

Sat Dec 7, 11:00am

Sat Dec 7, 10:10am

Sat Dec 7, 10:01am

Sat Dec 7, 9:10am

Sat Dec 7, 9:00am

Sat Dec 7, 8:10am

Sat Dec 7, 8:00am

Sat Dec 7, 7:10am

Sat Dec 7, 7:00am

Sat Dec 7, 6:10am

Sat Dec 7, 6:00am

Sat Dec 7, 5:10am

Sat Dec 7, 5:00am

Sat Dec 7, 4:10am

Sat Dec 7, 4:00am

Sat Dec 7, 3:10am

Sat Dec 7, 3:00am

Sat Dec 7, 2:10am

Sat Dec 7, 2:01am

Sat Dec 7, 1:10am

Sat Dec 7, 1:00am

Sat Dec 7, 12:10am

Sat Dec 7, 12:01am

Fri Dec 6, 11:10pm

Fri Dec 6, 11:00pm

Fri Dec 6, 10:10pm

Fri Dec 6, 10:00pm

Fri Dec 6, 9:10pm

Fri Dec 6, 9:00pm

Fri Dec 6, 8:10pm

Fri Dec 6, 8:00pm

Fri Dec 6, 7:10pm

Fri Dec 6, 7:01pm

Fri Dec 6, 6:10pm

Fri Dec 6, 6:00pm

Fri Dec 6, 5:10pm

Fri Dec 6, 5:00pm

Fri Dec 6, 4:10pm

Fri Dec 6, 4:00pm

Fri Dec 6, 3:10pm

Fri Dec 6, 3:00pm

Fri Dec 6, 2:10pm

Fri Dec 6, 2:00pm

Fri Dec 6, 1:10pm

Fri Dec 6, 1:00pm

Fri Dec 6, 12:10pm

Fri Dec 6, 12:00pm

Fri Dec 6, 11:10am

Fri Dec 6, 11:00am

Fri Dec 6, 10:10am

Fri Dec 6, 10:00am

Fri Dec 6, 9:10am

Fri Dec 6, 9:00am

Fri Dec 6, 8:10am

Fri Dec 6, 8:00am

Fri Dec 6, 7:10am

Fri Dec 6, 7:00am

Fri Dec 6, 6:10am

Fri Dec 6, 6:01am

Fri Dec 6, 5:10am

Fri Dec 6, 5:00am

Fri Dec 6, 4:10am

Fri Dec 6, 3:10am

Fri Dec 6, 3:00am

Fri Dec 6, 2:10am

Fri Dec 6, 2:00am

Fri Dec 6, 1:10am

Fri Dec 6, 1:00am

Fri Dec 6, 12:10am

Fri Dec 6, 12:00am

Thu Dec 5, 11:10pm

Thu Dec 5, 11:00pm

Thu Dec 5, 10:10pm

Thu Dec 5, 10:01pm

Thu Dec 5, 9:10pm

Thu Dec 5, 9:01pm

Thu Dec 5, 8:10pm

Thu Dec 5, 8:00pm

Thu Dec 5, 7:10pm

Thu Dec 5, 7:00pm

Thu Dec 5, 6:10pm

Thu Dec 5, 6:00pm

Thu Dec 5, 5:10pm

Thu Dec 5, 5:00pm

Thu Dec 5, 4:10pm

Meta data:

ID: c5f377d7-7006-4074-80d4-dfc05a809f5c
Link: https://api.weather.gov/products/9f7f1070-f4d0-4f15-9a09-ac65133292c2